This is the latest recevied weather packets stored in our database for station/object WV6L-13. If no packets are shown the sender has not sent any weather packets the latest 1 day(s).
| Time | Temp. | Humidity | Pressure | Rain* | Wind** | Luminosity | Snow |
|---|---|---|---|---|---|---|---|
| 1778041793 | 16.11° C | 37% | 923.8 hPa | - | - | - | - |
| 1778041493 | 15.56° C | 37% | 923.7 hPa | - | - | - | - |
| 1778040593 | 16.11° C | 36% | 923.5 hPa | - | - | - | - |
| 1778040292 | 15.56° C | 37% | 923.3 hPa | - | - | - | - |
| 1778039692 | 16.67° C | 35% | 923.3 hPa | - | - | - | - |
| 1778039093 | 17.78° C | 33% | 923.1 hPa | - | - | - | - |
| 1778038793 | 17.78° C | 33% | 923.1 hPa | - | - | - | - |
| 1778038193 | 17.22° C | 33% | 922.9 hPa | - | - | - | - |
| 1778037893 | 17.22° C | 34% | 922.8 hPa | - | - | - | - |
| 1778037592 | 17.22° C | 34% | 922.6 hPa | - | - | - | - |
| 1778036993 | 17.78° C | 33% | 922.6 hPa | - | - | - | - |
| 1778036693 | 18.33° C | 32% | 922.5 hPa | - | - | - | - |
| 1778036393 | 18.89° C | 32% | 922.3 hPa | - | - | - | - |
| 1778036093 | 18.89° C | 31% | 922.4 hPa | - | - | - | - |
| 1778035793 | 18.89° C | 31% | 922.5 hPa | - | - | - | - |
| 1778035493 | 19.44° C | 31% | 922.2 hPa | - | - | - | - |
| 1778035193 | 19.44° C | 31% | 922.1 hPa | - | - | - | - |
| 1778034893 | 19.44° C | 30% | 922 hPa | - | - | - | - |
| 1778034593 | 20° C | 30% | 921.9 hPa | - | - | - | - |
| 1778034293 | 20° C | 30% | 921.9 hPa | - | - | - | - |
| 1778033992 | 20° C | 29% | 921.8 hPa | - | - | - | - |
| 1778033393 | 21.11° C | 28% | 921.8 hPa | - | - | - | - |
| 1778033093 | 21.11° C | 28% | 921.7 hPa | - | - | - | - |
| 1778032493 | 21.11° C | 29% | 921.6 hPa | - | - | - | - |
| 1778032193 | 21.67° C | 29% | 921.8 hPa | - | - | - | - |
* Rain since midnight (hover to see other rain measurements)
** Current wind speed in m/s (hover to see current wind gust speed)